When you browse on this site, cookies collect data to enhance your experience and personalize the content and advertising you see.
Visit our Privacy Policy to learn more. By continuing to use the site, you agree to this use of cookies and data.
  • Em Portugal
  • Lista de países
  • Para 7 dias
  • Temperatura da água
  • Mapas de satélite
  • Mapa do tempo
  • Widgets de tempo
  • user-avatar
    Iniciar Sessão

    Previsão horária em Turgovisto

    Hoje, 23 Abril, Terça-feira

    Tempo Temperatura Precipitação Vento Pressão Humidade
    00:00 +4°C° 0 mm 3 m/s 749 mmHg 69%
    01:00 +4°C° 0 mm 3 m/s 749 mmHg 70%
    02:00 +4°C° 0 mm 3 m/s 749 mmHg 72%
    03:00 +4°C° 0 mm 3 m/s 749 mmHg 73%
    04:00 +4°C° 0 mm 3 m/s 749 mmHg 74%
    05:00 +4°C° 0 mm 4 m/s 750 mmHg 75%
    06:00 +5°C° 0 mm 4 m/s 750 mmHg 72%
    07:00 +7°C° 0 mm 4 m/s 750 mmHg 69%
    08:00 +8°C° 0 mm 5 m/s 750 mmHg 66%
    09:00 +9°C° 0 mm 5 m/s 751 mmHg 63%
    10:00 +11°C° 0 mm 6 m/s 751 mmHg 60%
    11:00 +13°C° 0 mm 6 m/s 751 mmHg 57%
    12:00 +13°C° 0 mm 6 m/s 751 mmHg 57%
    13:00 +14°C° 0 mm 6 m/s 751 mmHg 56%
    14:00 +14°C° 0 mm 6 m/s 750 mmHg 56%
    15:00 +14°C° 0.1 mm 6 m/s 750 mmHg 61%
    16:00 +13°C° 0.1 mm 5 m/s 750 mmHg 65%
    17:00 +12°C° 0.1 mm 5 m/s 750 mmHg 70%
    18:00 +10°C° 0.4 mm 5 m/s 750 mmHg 74%
    19:00 +9°C° 0.4 mm 5 m/s 750 mmHg 77%
    20:00 +7°C° 0.4 mm 4 m/s 750 mmHg 81%
    21:00 +7°C° 0 mm 4 m/s 750 mmHg 81%
    22:00 +7°C° 0 mm 4 m/s 750 mmHg 81%
    23:00 +6°C° 0 mm 4 m/s 750 mmHg 81%

    Amanhã, 24 Abril, Quarta-feira

    Tempo Temperatura Precipitação Vento Pressão Humidade
    00:00 +6°C° 0 mm 4 m/s 750 mmHg 82%
    01:00 +6°C° 0 mm 4 m/s 750 mmHg 82%
    02:00 +6°C° 0 mm 4 m/s 750 mmHg 82%
    03:00 +6°C° 0 mm 4 m/s 750 mmHg 84%
    04:00 +5°C° 0 mm 4 m/s 750 mmHg 86%
    05:00 +5°C° 0 mm 3 m/s 750 mmHg 88%
    06:00 +7°C° 0 mm 4 m/s 750 mmHg 84%
    07:00 +8°C° 0 mm 4 m/s 750 mmHg 80%
    08:00 +11°C° 0 mm 4 m/s 750 mmHg 76%
    09:00 +13°C° 0 mm 4 m/s 750 mmHg 70%
    10:00 +15°C° 0 mm 4 m/s 750 mmHg 64%
    11:00 +18°C° 0 mm 4 m/s 751 mmHg 59%
    12:00 +19°C° 0 mm 3 m/s 751 mmHg 57%
    13:00 +20°C° 0 mm 3 m/s 750 mmHg 54%
    14:00 +21°C° 0 mm 3 m/s 750 mmHg 52%
    15:00 +20°C° 0 mm 3 m/s 750 mmHg 56%
    16:00 +20°C° 0 mm 4 m/s 750 mmHg 60%
    17:00 +19°C° 0 mm 4 m/s 750 mmHg 64%
    18:00 +17°C° 0 mm 4 m/s 750 mmHg 72%
    19:00 +13°C° 0 mm 4 m/s 750 mmHg 80%
    20:00 +11°C° 0 mm 3 m/s 750 mmHg 88%
    21:00 +10°C° 0 mm 3 m/s 751 mmHg 89%
    22:00 +10°C° 0 mm 3 m/s 751 mmHg 90%
    23:00 +9°C° 0 mm 2 m/s 751 mmHg 91%

    Depois de amanhã, 25 Abril, Quinta-feira

    Tempo Temperatura Precipitação Vento Pressão Humidade
    00:00 +9°C° 0 mm 2 m/s 751 mmHg 92%
    01:00 +8°C° 0 mm 2 m/s 751 mmHg 92%
    02:00 +8°C° 0 mm 2 m/s 751 mmHg 93%
    03:00 +8°C° 0 mm 2 m/s 751 mmHg 93%
    04:00 +8°C° 0 mm 2 m/s 751 mmHg 93%
    05:00 +8°C° 0 mm 2 m/s 751 mmHg 93%
    06:00 +9°C° 0 mm 2 m/s 751 mmHg 88%
    07:00 +12°C° 0 mm 2 m/s 751 mmHg 82%
    08:00 +14°C° 0 mm 2 m/s 752 mmHg 77%
    09:00 +16°C° 0 mm 3 m/s 752 mmHg 71%
    10:00 +18°C° 0 mm 3 m/s 752 mmHg 65%
    11:00 +20°C° 0 mm 3 m/s 752 mmHg 59%
    12:00 +21°C° 0 mm 3 m/s 752 mmHg 57%
    13:00 +21°C° 0 mm 3 m/s 751 mmHg 55%
    14:00 +22°C° 0 mm 3 m/s 751 mmHg 54%
    15:00 +21°C° 0 mm 4 m/s 751 mmHg 57%
    16:00 +21°C° 0 mm 4 m/s 750 mmHg 61%
    17:00 +20°C° 0 mm 5 m/s 750 mmHg 64%
    18:00 +18°C° 0 mm 4 m/s 750 mmHg 69%
    19:00 +14°C° 0 mm 3 m/s 750 mmHg 74%
    20:00 +12°C° 0 mm 3 m/s 750 mmHg 80%
    21:00 +11°C° 0 mm 3 m/s 750 mmHg 80%
    22:00 +10°C° 0 mm 2 m/s 750 mmHg 79%
    23:00 +9°C° 0 mm 2 m/s 750 mmHg 79%

    26 Abril, Sexta-feira

    Tempo Temperatura Precipitação Vento Pressão Humidade
    00:00 +9°C° 0 mm 2 m/s 750 mmHg 79%
    01:00 +9°C° 0 mm 2 m/s 750 mmHg 78%
    02:00 +9°C° 0 mm 2 m/s 750 mmHg 77%
    03:00 +8°C° 0 mm 2 m/s 750 mmHg 77%
    04:00 +8°C° 0 mm 2 m/s 749 mmHg 77%
    05:00 +8°C° 0 mm 2 m/s 749 mmHg 78%
    06:00 +10°C° 0 mm 2 m/s 749 mmHg 74%
    07:00 +12°C° 0 mm 2 m/s 750 mmHg 70%
    08:00 +13°C° 0 mm 3 m/s 750 mmHg 66%
    09:00 +16°C° 0 mm 3 m/s 750 mmHg 61%
    10:00 +18°C° 0 mm 3 m/s 750 mmHg 57%
    11:00 +19°C° 0 mm 4 m/s 750 mmHg 52%
    12:00 +20°C° 0 mm 4 m/s 750 mmHg 51%
    13:00 +21°C° 0 mm 4 m/s 749 mmHg 51%
    14:00 +21°C° 0 mm 4 m/s 749 mmHg 50%
    15:00 +20°C° 0 mm 4 m/s 748 mmHg 53%
    16:00 +20°C° 0 mm 5 m/s 748 mmHg 56%
    17:00 +19°C° 0 mm 5 m/s 748 mmHg 58%
    18:00 +17°C° 0 mm 4 m/s 748 mmHg 64%
    19:00 +14°C° 0 mm 3 m/s 748 mmHg 70%
    20:00 +11°C° 0 mm 3 m/s 748 mmHg 76%
    21:00 +11°C° 0 mm 3 m/s 748 mmHg 77%
    22:00 +10°C° 0 mm 3 m/s 748 mmHg 77%
    23:00 +9°C° 0 mm 2 m/s 748 mmHg 78%

    27 Abril, Sábado

    Tempo Temperatura Precipitação Vento Pressão Humidade
    00:00 +9°C° 0 mm 2 m/s 748 mmHg 78%
    01:00 +9°C° 0 mm 2 m/s 747 mmHg 77%
    02:00 +8°C° 0 mm 2 m/s 747 mmHg 77%
    03:00 +8°C° 0 mm 2 m/s 747 mmHg 77%
    04:00 +8°C° 0 mm 2 m/s 747 mmHg 77%
    05:00 +8°C° 0 mm 2 m/s 746 mmHg 77%
    06:00 +10°C° 0 mm 3 m/s 746 mmHg 72%
    07:00 +12°C° 0 mm 3 m/s 746 mmHg 68%
    08:00 +13°C° 0 mm 3 m/s 746 mmHg 64%
    09:00 +16°C° 0 mm 3 m/s 746 mmHg 60%
    10:00 +18°C° 0 mm 4 m/s 746 mmHg 56%
    11:00 +20°C° 0 mm 4 m/s 746 mmHg 52%
    12:00 +21°C° 0 mm 4 m/s 746 mmHg 51%
    13:00 +22°C° 0 mm 4 m/s 745 mmHg 51%
    14:00 +23°C° 0 mm 4 m/s 745 mmHg 50%
    15:00 +22°C° 0 mm 4 m/s 744 mmHg 54%
    16:00 +21°C° 0 mm 4 m/s 744 mmHg 57%
    17:00 +21°C° 0 mm 4 m/s 744 mmHg 61%
    18:00 +19°C° 0 mm 4 m/s 744 mmHg 66%
    19:00 +17°C° 0 mm 3 m/s 744 mmHg 72%
    20:00 +13°C° 0 mm 3 m/s 744 mmHg 78%
    21:00 +13°C° 0 mm 3 m/s 744 mmHg 77%
    22:00 +13°C° 0 mm 2 m/s 743 mmHg 77%
    23:00 +13°C° 0 mm 2 m/s 743 mmHg 76%

    28 Abril, Domingo

    Tempo Temperatura Precipitação Vento Pressão Humidade
    00:00 +12°C° 0 mm 2 m/s 743 mmHg 76%
    01:00 +12°C° 0 mm 2 m/s 743 mmHg 76%
    02:00 +12°C° 0 mm 2 m/s 742 mmHg 76%
    03:00 +12°C° 0 mm 2 m/s 742 mmHg 76%
    04:00 +12°C° 0 mm 1 m/s 742 mmHg 76%
    05:00 +12°C° 0 mm 1 m/s 742 mmHg 76%
    06:00 +13°C° 0.1 mm 1 m/s 742 mmHg 76%
    07:00 +14°C° 0.1 mm 1 m/s 742 mmHg 75%
    08:00 +15°C° 0.1 mm 1 m/s 742 mmHg 74%
    09:00 +16°C° 0 mm 1 m/s 742 mmHg 77%
    10:00 +17°C° 0 mm 2 m/s 742 mmHg 79%
    11:00 +18°C° 0 mm 2 m/s 742 mmHg 81%
    12:00 +18°C° 0.2 mm 3 m/s 742 mmHg 82%
    13:00 +18°C° 0.2 mm 3 m/s 742 mmHg 84%
    14:00 +17°C° 0.2 mm 3 m/s 741 mmHg 85%
    15:00 +17°C° 1.2 mm 4 m/s 741 mmHg 85%
    16:00 +17°C° 1.2 mm 4 m/s 741 mmHg 84%
    17:00 +16°C° 1.2 mm 5 m/s 741 mmHg 84%
    18:00 +15°C° 5.4 mm 4 m/s 741 mmHg 86%
    19:00 +14°C° 5.4 mm 3 m/s 741 mmHg 89%
    20:00 +13°C° 5.4 mm 3 m/s 742 mmHg 92%
    21:00 +13°C° 2.2 mm 2 m/s 742 mmHg 92%
    22:00 +13°C° 2.2 mm 2 m/s 742 mmHg 91%
    23:00 +13°C° 2.2 mm 2 m/s 742 mmHg 91%
    Mostrar mais